Temperature
26 27 28 28 29 29 29 29 29 29 30 30 30 30 30 28 27 26 25 23 22 21 20 19 18 18 18 18 17 17 17 17 17 17 17 17 17 17 17 17 17 17 17 17
26 27 29 29 28 28 28 28 29 29 29 29 30 30 30 29 27 26 25 24 23 21 20 19 18 18 18 18 18 18 18 18 17 17 17 17 17 17 17 17 17 17 17 17
27 29 29 28 27 27 28 28 29 29 29 29 29 30 30 29 27 26 25 24 23 22 20 19 18 18 18 17 18 18 18 18 17 17 17 17 17 17 17 17 17 17 17 17
28 29 27 27 27 28 28 29 29 28 28 29 29 29 30 29 28 27 26 25 23 22 21 19 18 18 18 18 18 18 17 18 17 17 17 17 17 17 17 17 17 17 17 17
27 28 27 27 28 28 29 29 28 28 28 29 29 29 30 29 29 28 27 25 24 22 21 20 19 18 18 18 17 17 17 17 17 17 17 17 17 17 17 17 17 17 17 17
28 28 28 28 29 29 29 28 28 28 29 28 29 28 29 30 29 28 27 25 23 22 21 20 19 18 18 18 18 17 17 17 17 17 17 17 17 17 17 17 17 17 17 17
27 27 28 28 28 28 28 27 27 27 28 28 28 28 29 29 28 28 27 25 23 22 21 20 19 18 18 18 18 17 17 17 17 17 17 17 17 17 17 17 17 17 17 17
27 27 28 28 28 28 28 28 28 27 28 29 28 28 29 28 27 26 26 25 23 22 22 21 20 19 18 18 18 17 17 17 17 17 17 17 17 17 17 17 17 17 17 17
28 28 29 29 29 29 28 28 30 29 28 28 29 29 29 28 27 27 26 25 24 23 22 21 20 19 18 18 18 17 17 17 17 17 17 17 17 17 17 17 17 17 17 17
29 28 28 28 28 28 29 29 29 28 27 27 28 28 29 28 28 27 26 25 24 23 22 21 20 19 18 18 18 17 17 17 17 17 17 17 17 17 17 17 17 16 16 16
28 27 28 28 27 28 27 28 28 29 29 28 28 28 29 29 28 27 26 25 24 23 22 21 20 19 19 18 18 18 17 17 17 17 17 17 17 17 17 17 16 16 16 16
28 28 28 28 29 29 29 29 28 28 27 28 28 29 28 28 28 27 26 25 24 23 22 21 20 19 19 18 18 18 17 17 17 17 17 17 17 17 17 17 16 16 16 16
27 27 26 27 27 28 28 29 29 29 28 28 28 28 28 27 27 26 25 24 23 22 22 21 20 19 18 18 18 18 17 17 17 17 17 17 17 17 17 16 16 16 16 16
27 27 27 28 28 29 28 28 28 28 28 28 28 28 28 27 27 26 24 23 23 22 21 20 19 19 18 18 18 17 17 17 17 17 17 17 17 17 17 17 16 16 16 16
26 27 27 28 29 29 29 29 28 28 29 29 29 29 28 27 26 25 24 23 22 21 21 20 19 18 18 18 17 17 17 17 17 16 16 16 16 16 16 16 16 16 16 16
26 26 27 27 28 28 28 28 28 28 29 29 29 28 27 26 25 24 23 22 22 21 20 20 19 18 18 17 17 17 17 17 16 16 16 16 16 16 16 16 16 16 15 15
26 25 26 27 27 27 27 28 28 28 28 29 28 28 26 25 24 23 22 22 21 21 20 19 18 18 17 17 17 17 17 16 16 16 16 16 16 16 16 16 15 15 15 15
24 25 26 27 26 25 27 27 28 27 27 27 26 26 25 24 22 21 20 20 20 19 18 18 18 17 17 17 17 16 16 16 16 16 16 16 16 15 15 15 15 15 15 14
24 24 25 26 25 26 25 25 26 26 26 26 25 24 23 22 22 21 19 19 18 18 18 17 17 17 17 17 16 16 16 16 15 15 15 15 15 15 15 15 15 14 14 14
23 23 25 25 25 25 26 25 24 25 24 24 24 23 23 22 24 22 18 18 17 17 17 17 17 17 16 16 16 16 16 15 15 15 15 15 15 15 15 14 14 14 13 13
23 23 24 24 24 25 24 23 24 24 24 23 22 22 22 22 22 19 17 17 16 16 16 16 16 16 16 16 16 15 15 15 15 15 14 14 14 14 14 13 13 13 13 12
23 23 23 24 24 24 22 23 23 22 21 21 21 20 20 19 18 17 16 16 15 15 16 16 15 15 15 15 15 15 15 14 14 14 14 13 13 13 13 13 12 12 12 11
22 22 23 23 23 20 20 20 19 19 19 19 19 19 18 17 17 16 15 15 15 15 15 15 15 15 15 14 15 14 14 14 13 13 13 13 13 12 12 12 11 11 11 11
20 20 21 21 20 19 19 18 18 18 18 18 17 17 17 17 16 15 15 15 14 14 14 14 14 14 14 14 14 14 13 13 13 13 12 12 11 11 11 11 10 10 10 10
20 20 20 20 19 19 18 17 17 16 16 16 16 16 16 15 15 15 14 14 14 13 13 13 13 13 13 13 13 13 13 13 12 12 11 11 11 10 10 10 9 9 9 9
19 19 20 20 19 19 17 16 15 15 15 15 15 15 15 15 14 14 13 13 13 13 13 13 13 12 12 12 12 12 12 12 12 11 11 10 10 10 9 9 9 8 8 8
Wind_Speed
11 13 15 14 14 10 7 8 8 6 4 7 7 7 4 4 6 6 7 7 8 8 9 10 11 12 13 13 13 13 14 14 11 9 9 8 8 8 7 7 9 9 9 8
10 17 16 10 10 11 11 11 10 6 2 6 8 8 4 4 6 5 6 8 8 9 10 11 12 12 13 13 13 14 13 13 13 10 8 7 7 6 6 6 8 9 10 9
17 6 10 12 13 13 13 12 9 7 6 7 8 10 5 4 5 5 6 7 8 10 11 12 12 13 13 13 13 13 13 13 13 11 9 7 6 5 6 7 7 9 10 10
15 10 8 13 15 14 13 10 9 8 9 6 4 9 4 4 5 6 6 6 8 9 11 11 12 13 13 13 13 12 12 12 12 12 11 11 9 8 9 8 7 8 9 10
11 12 13 15 14 14 10 5 7 8 9 10 8 9 4 3 4 4 5 5 7 9 10 11 11 11 11 12 12 11 12 12 12 12 12 11 9 8 7 8 8 8 8 9
10 8 11 13 12 12 8 6 6 8 9 11 7 7 6 1 1 1 4 5 7 9 9 10 10 10 10 11 11 11 12 12 12 12 11 11 11 9 9 10 9 9 8 8
13 13 11 9 11 12 13 11 8 9 9 8 3 6 4 2 1 0 3 6 8 9 9 10 10 10 10 11 11 12 12 12 12 13 12 12 12 11 11 10 9 8 8 8
14 13 15 14 15 11 16 16 10 7 6 4 6 5 0 2 1 2 4 7 9 10 9 10 10 10 11 11 12 12 12 12 12 12 12 11 11 10 9 9 8 9 7 8
11 9 10 13 15 15 14 15 14 9 7 6 4 3 3 3 4 5 7 9 9 9 9 9 10 10 10 11 11 12 12 11 12 12 12 11 11 11 10 9 9 8 8 8
7 7 9 10 10 13 13 11 9 10 8 8 6 6 3 5 5 7 8 9 10 9 9 9 9 10 9 10 10 11 11 11 10 11 10 10 11 10 9 9 9 8 8 8
12 9 9 11 12 16 13 12 11 10 9 7 5 3 3 4 5 7 8 8 9 10 10 9 9 9 10 10 10 9 9 9 9 9 10 9 10 9 9 9 9 8 7 8
14 9 10 10 7 7 15 15 14 11 9 9 7 2 5 4 5 6 8 8 8 9 9 10 9 9 9 9 9 9 8 9 9 9 9 9 9 9 9 8 8 7 7 8
12 8 10 11 10 8 11 13 14 12 9 10 9 3 7 6 6 7 7 8 8 9 9 9 9 9 8 8 8 8 8 8 8 8 8 8 8 9 8 7 7 7 7 7
9 9 13 13 11 14 13 13 14 14 11 10 10 5 6 6 6 6 7 8 8 9 9 9 9 9 8 8 7 7 7 7 7 7 8 8 8 8 7 7 6 6 6 6
7 10 12 10 6 9 12 14 15 15 13 10 8 7 5 5 5 6 7 8 9 9 9 9 9 9 8 8 8 7 7 7 7 7 7 7 7 6 6 6 6 6 6 6
6 8 10 10 9 10 11 12 13 14 12 11 9 5 2 5 5 6 7 8 8 8 9 8 8 9 9 8 8 8 7 7 7 7 7 7 7 7 6 6 6 6 6 5
7 7 9 11 10 11 14 13 13 12 10 10 10 4 5 5 5 6 6 7 7 7 7 8 8 7 7 7 8 8 8 8 8 7 7 7 7 7 6 7 7 6 6 7
6 8 8 9 9 15 6 3 7 9 7 5 2 3 4 4 5 5 5 5 6 6 6 6 6 7 7 7 8 8 8 8 8 8 7 7 8 8 8 8 8 8 7 8
7 8 9 10 14 12 5 5 7 8 7 5 4 5 5 6 7 6 4 4 5 5 5 5 5 6 6 7 8 8 8 8 8 8 7 7 8 9 9 9 9 8 9 9
7 8 10 11 14 14 7 7 4 5 7 5 5 6 6 7 6 4 5 4 4 4 4 4 5 6 6 6 7 8 8 8 8 8 8 8 8 9 10 10 10 9 10 10
12 10 14 14 13 8 4 5 6 9 4 5 4 4 5 3 2 5 5 5 4 4 5 5 6 6 5 6 7 8 7 7 7 8 9 9 9 10 11 11 10 11 11 11
11 11 12 12 14 9 5 5 5 2 5 4 3 3 3 4 5 5 5 5 5 5 6 6 6 6 6 6 8 8 8 8 9 10 11 11 10 10 10 12 11 11 12 13
5 3 4 4 2 5 4 2 3 2 3 3 2 3 4 4 5 5 5 5 5 5 6 6 7 8 7 6 8 10 9 10 11 11 11 11 11 11 11 11 12 10 10 10
3 0 2 2 4 4 4 3 3 3 3 2 2 3 4 4 5 6 6 6 6 6 6 7 8 9 8 8 9 10 10 11 12 13 12 11 11 11 11 9 8 9 9 9
2 3 3 3 4 5 4 3 3 4 4 3 3 3 3 5 6 6 6 6 6 6 6 7 9 10 10 9 10 10 10 12 13 13 12 12 11 12 12 11 10 9 8 7
3 2 3 2 4 2 3 3 3 4 4 4 4 3 4 5 6 6 6 6 6 7 8 9 10 10 11 11 11 10 10 12 13 13 12 11 11 11 11 13 13 19 15 18
Wind_Direction
194 214 220 219 225 253 265 262 260 266 302 292 279 285 272 218 215 203 195 190 189 187 178 173 172 174 173 176 174 174 178 177 175 174 176 174 180 184 184 188 187 192 197 192
198 225 229 229 227 235 244 251 254 252 273 289 285 282 263 224 219 215 202 195 192 180 173 172 172 172 176 177 178 179 181 177 178 178 180 178 176 187 185 188 186 196 200 197
214 225 217 215 217 226 234 244 255 271 287 253 275 262 220 206 202 200 202 200 195 185 178 176 177 178 180 182 185 186 183 180 181 175 175 172 169 182 186 192 193 199 201 201
228 221 200 209 218 224 234 237 251 262 268 261 268 285 242 209 213 202 198 197 192 184 178 177 179 181 183 186 186 182 179 181 179 178 183 182 186 194 195 192 191 192 197 198
215 214 210 216 219 221 235 225 238 253 260 268 249 272 278 208 237 195 186 193 185 179 178 177 181 183 183 183 180 177 177 179 180 184 184 189 198 201 194 191 188 194 191 196
225 205 219 225 224 221 212 206 224 241 248 250 249 267 280 268 313 167 166 171 174 171 170 172 173 175 180 179 176 175 177 179 181 184 189 196 199 198 193 192 189 194 191 195
215 214 211 213 201 196 203 213 218 221 225 240 194 254 277 26 6 242 169 162 165 165 167 167 168 172 177 177 175 177 179 181 184 187 191 194 198 198 199 197 194 198 195 195
206 211 205 207 212 196 204 218 233 243 241 220 184 244 271 91 106 145 152 151 158 162 165 167 168 169 173 176 177 178 182 183 185 188 190 193 196 201 201 199 199 202 207 201
206 207 185 204 212 218 207 223 239 256 265 263 228 224 201 168 159 153 148 151 158 160 161 167 167 168 172 178 181 179 181 184 187 188 188 192 198 205 203 197 204 206 207 200
218 205 177 180 194 213 226 219 219 232 239 245 231 230 219 172 165 155 156 157 158 159 163 165 167 169 171 177 178 179 181 185 187 189 192 193 197 201 198 200 200 203 205 204
223 217 178 179 199 193 198 209 219 227 243 254 241 198 119 156 154 158 157 158 159 165 165 163 164 165 167 171 174 177 179 184 187 192 196 195 193 193 192 197 199 202 205 201
212 223 209 196 190 214 205 211 211 219 222 240 265 163 110 138 142 154 153 151 157 161 163 162 161 161 164 168 171 174 178 186 189 190 194 195 190 190 191 195 196 198 198 199
188 207 205 196 193 196 210 215 218 228 232 234 243 182 129 142 146 154 154 154 156 160 160 160 160 163 165 168 171 172 179 184 185 184 188 186 187 187 188 189 190 193 192 195
196 214 225 221 204 191 200 205 211 219 225 228 238 218 164 168 164 159 157 159 160 160 160 161 161 165 166 167 169 172 175 176 177 178 182 183 189 187 183 184 185 186 185 184
207 218 226 244 228 207 210 206 205 218 234 241 230 229 198 176 169 162 159 157 160 160 162 162 161 162 165 166 167 169 168 168 169 171 171 172 175 170 169 169 170 170 167 166
212 225 214 221 220 218 218 212 210 216 227 237 239 226 129 133 148 152 157 159 161 162 163 163 163 163 165 168 169 166 166 166 164 162 159 155 153 151 152 150 148 149 148 145
199 207 214 218 207 209 218 215 214 215 224 236 237 210 142 143 140 147 154 158 157 156 157 162 164 163 164 169 169 166 165 161 159 158 153 146 142 140 137 138 133 132 130 126
213 217 222 221 202 224 206 182 220 219 218 225 211 149 144 131 128 128 134 144 143 143 149 156 160 156 159 163 162 158 155 157 158 156 150 143 138 134 130 127 121 116 112 108
215 218 226 224 223 224 185 179 197 207 210 206 192 158 144 136 140 128 111 117 128 136 144 148 149 147 148 155 157 154 152 153 150 146 142 140 137 133 129 124 120 115 110 104
194 218 230 227 235 231 201 153 181 214 211 171 171 163 159 175 201 137 116 106 108 115 121 128 132 135 140 148 152 153 152 150 146 142 138 132 130 128 124 120 115 111 107 102
196 206 224 227 231 232 116 144 183 218 199 132 158 167 178 185 53 102 112 103 101 104 108 115 117 121 125 134 139 139 136 134 127 124 122 118 117 119 118 114 111 110 107 103
210 211 216 226 231 220 119 172 204 79 86 122 137 149 136 110 108 117 115 113 113 112 113 117 115 108 111 124 130 127 122 120 118 117 113 111 111 112 113 113 112 112 113 108
225 253 226 228 216 84 103 91 64 72 106 115 127 122 137 140 135 129 124 117 114 114 114 116 115 107 102 111 123 120 117 119 118 113 110 108 106 104 107 112 115 114 114 113
168 216 205 175 133 119 107 90 79 79 87 88 115 141 147 147 146 141 132 121 118 120 120 117 112 106 99 97 102 109 118 121 118 113 110 108 105 102 97 95 100 106 110 113
167 192 200 191 144 136 116 84 82 85 84 87 100 122 142 149 146 138 131 126 123 124 124 119 115 111 106 102 99 105 114 119 117 113 111 108 104 101 92 81 69 82 75 84
210 224 233 201 150 156 126 95 88 87 83 85 96 105 121 138 139 135 129 125 122 118 115 111 111 111 110 107 104 106 111 117 118 116 113 112 111 108 105 100 83 60 67 63
Height
1494 1493 1489 1486 1486 1485 1487 1489 1489 1485 1482 1483 1480 1478 1477 1481 1483 1485 1488 1491 1493 1496 1498 1499 1500 1502 1504 1508 1511 1515 1518 1521 1525 1529 1533 1536 1540 1543 1546 1549 1551 1554 1556 1559
1492 1488 1482 1482 1485 1488 1489 1491 1487 1483 1482 1483 1479 1476 1474 1478 1481 1483 1485 1488 1491 1494 1496 1498 1499 1501 1503 1506 1510 1513 1516 1520 1523 1527 1531 1535 1539 1542 1545 1547 1549 1552 1555 1557
1483 1478 1479 1484 1487 1490 1488 1488 1485 1485 1482 1479 1480 1476 1472 1474 1479 1482 1484 1486 1489 1491 1494 1496 1498 1500 1502 1505 1508 1512 1515 1518 1522 1525 1530 1534 1537 1540 1543 1545 1548 1550 1553 1555
1479 1476 1480 1483 1484 1485 1487 1481 1483 1485 1486 1480 1481 1484 1471 1470 1474 1477 1481 1484 1486 1489 1492 1495 1497 1499 1501 1504 1506 1510 1513 1517 1520 1524 1528 1531 1534 1537 1541 1544 1546 1548 1551 1553
1475 1474 1479 1481 1479 1480 1479 1479 1481 1482 1483 1484 1478 1483 1471 1468 1471 1472 1477 1481 1484 1487 1490 1493 1495 1497 1500 1502 1505 1508 1511 1515 1519 1523 1526 1529 1533 1536 1539 1542 1544 1546 1549 1551
1468 1472 1473 1473 1473 1476 1477 1482 1482 1481 1479 1490 1479 1484 1477 1465 1469 1470 1475 1480 1483 1486 1489 1491 1494 1496 1498 1500 1503 1506 1510 1513 1517 1520 1524 1527 1530 1533 1537 1539 1542 1544 1547 1549
1472 1470 1469 1470 1472 1475 1478 1484 1489 1491 1489 1485 1475 1481 1474 1466 1468 1471 1474 1479 1482 1485 1488 1490 1493 1494 1496 1498 1502 1505 1508 1511 1515 1518 1522 1525 1528 1531 1534 1537 1540 1542 1545 1547
1472 1470 1465 1466 1467 1470 1474 1475 1485 1491 1487 1478 1478 1478 1467 1466 1470 1472 1474 1478 1482 1485 1487 1490 1492 1494 1496 1498 1501 1504 1507 1510 1513 1516 1520 1523 1526 1529 1532 1535 1538 1540 1543 1545
1459 1463 1457 1459 1462 1464 1470 1471 1463 1472 1476 1480 1472 1469 1465 1466 1468 1471 1474 1478 1481 1484 1487 1489 1492 1494 1496 1499 1501 1504 1507 1509 1512 1515 1518 1521 1524 1527 1530 1532 1535 1538 1540 1543
1452 1461 1456 1458 1461 1463 1461 1462 1468 1474 1487 1488 1477 1473 1467 1465 1466 1469 1473 1476 1480 1484 1487 1489 1492 1494 1496 1499 1501 1504 1506 1508 1511 1514 1516 1519 1521 1524 1527 1529 1532 1535 1537 1539
1450 1458 1457 1458 1461 1461 1466 1467 1465 1466 1467 1479 1482 1473 1456 1460 1464 1468 1472 1476 1479 1483 1486 1489 1491 1494 1496 1498 1501 1503 1505 1508 1510 1512 1514 1517 1519 1521 1524 1526 1529 1532 1534 1536
1450 1453 1455 1453 1450 1450 1454 1457 1462 1471 1474 1470 1470 1469 1457 1460 1464 1468 1471 1476 1479 1482 1485 1488 1491 1494 1496 1498 1500 1502 1504 1506 1508 1510 1512 1514 1517 1519 1521 1524 1526 1529 1531 1533
1449 1454 1464 1462 1460 1457 1455 1454 1454 1457 1462 1466 1470 1468 1459 1462 1465 1469 1472 1476 1479 1482 1485 1488 1490 1493 1495 1497 1499 1501 1502 1504 1506 1508 1510 1512 1514 1516 1519 1521 1523 1526 1528 1530
1448 1448 1451 1454 1448 1446 1453 1453 1453 1456 1460 1463 1461 1459 1459 1461 1464 1468 1472 1476 1479 1482 1484 1487 1489 1492 1494 1496 1498 1499 1501 1503 1505 1506 1508 1510 1512 1514 1517 1519 1521 1523 1525 1528
1446 1447 1445 1440 1436 1439 1443 1446 1450 1453 1451 1454 1453 1454 1455 1459 1463 1468 1472 1475 1478 1481 1484 1486 1488 1491 1493 1495 1496 1498 1500 1501 1503 1504 1506 1508 1510 1513 1515 1517 1519 1521 1523 1525
1446 1445 1444 1445 1440 1441 1444 1443 1445 1447 1447 1448 1449 1453 1455 1461 1465 1468 1472 1475 1477 1480 1482 1485 1487 1489 1491 1493 1495 1497 1498 1500 1501 1503 1505 1507 1509 1511 1513 1515 1517 1519 1521 1523
1443 1446 1448 1446 1441 1445 1451 1443 1443 1445 1445 1446 1450 1452 1457 1461 1465 1469 1472 1474 1476 1479 1481 1484 1486 1488 1490 1492 1494 1495 1497 1498 1500 1502 1504 1506 1508 1510 1511 1514 1515 1517 1519 1521
1446 1446 1444 1442 1450 1461 1443 1440 1441 1444 1446 1448 1451 1455 1459 1463 1468 1471 1473 1475 1477 1479 1481 1483 1485 1486 1488 1490 1492 1494 1496 1498 1499 1501 1503 1505 1507 1509 1510 1512 1514 1516 1518 1520
1445 1446 1443 1443 1449 1446 1445 1444 1445 1447 1450 1451 1453 1458 1462 1465 1468 1471 1474 1475 1477 1478 1480 1482 1484 1485 1487 1489 1491 1493 1495 1497 1499 1501 1502 1504 1506 1508 1509 1511 1513 1515 1517 1519
1445 1446 1444 1445 1450 1452 1441 1443 1447 1449 1454 1453 1456 1459 1462 1464 1462 1468 1474 1475 1477 1478 1480 1481 1483 1484 1486 1488 1490 1492 1494 1496 1498 1499 1501 1503 1505 1507 1508 1510 1513 1515 1517 1519
1443 1446 1444 1444 1446 1440 1442 1446 1449 1456 1453 1456 1458 1460 1462 1463 1465 1471 1473 1475 1476 1478 1479 1481 1482 1484 1485 1487 1489 1491 1493 1495 1497 1499 1501 1502 1504 1506 1508 1510 1513 1515 1518 1520
1438 1439 1443 1442 1446 1447 1447 1447 1449 1452 1456 1457 1460 1462 1464 1466 1469 1471 1473 1474 1476 1478 1479 1480 1482 1483 1485 1487 1489 1490 1492 1495 1496 1498 1500 1502 1505 1507 1509 1511 1513 1516 1519 1520
1438 1438 1435 1440 1445 1450 1451 1452 1455 1456 1457 1459 1461 1463 1465 1467 1469 1471 1472 1474 1476 1477 1479 1480 1482 1483 1485 1487 1489 1490 1492 1494 1496 1498 1500 1503 1505 1507 1510 1512 1515 1517 1520 1522
1443 1446 1443 1445 1448 1452 1454 1456 1457 1458 1459 1461 1462 1463 1465 1467 1468 1470 1472 1474 1476 1477 1478 1480 1481 1483 1484 1487 1489 1490 1492 1494 1497 1498 1501 1503 1506 1508 1511 1514 1517 1520 1522 1524
1444 1445 1444 1447 1450 1453 1455 1457 1458 1459 1460 1461 1462 1463 1465 1466 1468 1470 1471 1473 1476 1477 1478 1479 1481 1482 1484 1487 1489 1491 1493 1495 1497 1499 1502 1504 1507 1510 1512 1515 1518 1521 1524 1526
1445 1446 1445 1445 1451 1452 1456 1459 1459 1460 1460 1461 1462 1464 1465 1466 1467 1469 1471 1473 1475 1477 1478 1479 1481 1483 1486 1488 1490 1492 1494 1496 1498 1500 1504 1507 1510 1513 1515 1517 1520 1524 1527 1529